Wahoo, NE

10:07 AM CDT on June 24, 2017 (GMT -0500)
Wahoo Municipal

Weather History for KAHQ - November, 2012

Change the Weather History Date:

Saturday, November 3, 2012

  Actual Average Record
Temperature  
Mean Temperature 42 °F -  
Max Temperature 54 °F 54 °F 77 °F (1978)
Min Temperature 30 °F 32 °F 4 °F (1991)
Degree Days  
Heating Degree Days 23    
Moisture  
Dew Point 31 °F    
Average Humidity 72    
Maximum Humidity 88    
Minimum Humidity 47    
Precipitation  
Precipitation 0.00 in - - ()
Sea Level Pressure  
Sea Level Pressure 30.17 in    
Wind  
Wind Speed 7 mph (NNW)    
Max Wind Speed 10 mph    
Max Gust Speed -    
Visibility 10 miles    
Events      
Averages and records for this station are not official NWS values.
T = Trace of Precipitation, MM = Missing Value Source: NWS Daily Summary

Daily Weather History Graph

Daily Weather History Graph

Search for Another Location

Airport or City:

Trip Planner

Search our weather history database for the weather conditions in past years. The results will help you decide how hot, cold, wet, or windy it might be!

Date:

Astronomy

Nov. 03, 2012 Rise Set
Actual Time 8:00 AM CDT 6:18 PM CDT
Civil Twilight 7:31 AM CDT 6:47 PM CDT
Nautical Twilight 6:59 AM CDT 7:20 PM CDT
Astronomical Twilight 6:26 AM CDT 7:52 PM CDT
Moon 9:59 PM CDT (11/3) 12:06 PM CDT (11/3)
Length of Visible Light 11h 15m
Length of Day
10h 18m
Waning Gibbous, 80% of the Moon is Illuminated
Nov 3
Waning Gibbous
Nov 6
Last Quarter
Nov 13
New
Nov 20
First Quarter
Nov 28
Full

Hourly Weather History & Observations

Time (CDT) Temp. Windchill Dew Point Humidity Pressure Visibility Wind Dir Wind Speed Gust Speed Precip Events Conditions
12:15 AM 34.2 °F 26.8 °F 28.4 °F 79% 30.09 in 10.0 mi NNW 9.2 mph - N/A   Clear
12:35 AM 33.8 °F 27.7 °F 28.2 °F 80% 30.10 in 10.0 mi NNW 6.9 mph - N/A   Clear
12:55 AM 33.6 °F 26.8 °F 27.9 °F 79% 30.10 in 10.0 mi NNW 8.1 mph - N/A   Clear
1:15 AM 33.1 °F 25.5 °F 27.9 °F 81% 30.10 in 10.0 mi NW 9.2 mph - N/A   Clear
1:35 AM 33.3 °F 25.7 °F 27.9 °F 81% 30.10 in 10.0 mi NNW 9.2 mph - N/A   Clear
1:55 AM 33.1 °F 25.5 °F 27.9 °F 81% 30.10 in 10.0 mi NNW 9.2 mph - N/A   Clear
2:15 AM 32.9 °F 25.3 °F 27.9 °F 82% 30.10 in 10.0 mi NNW 9.2 mph - N/A   Clear
2:35 AM 32.4 °F 24.6 °F 27.9 °F 83% 30.10 in 10.0 mi NNW 9.2 mph - N/A   Clear
2:55 AM 32.0 °F 23.6 °F 28.0 °F 85% 30.11 in 10.0 mi NW 10.4 mph - N/A   Clear
3:15 AM 32.0 °F 24.8 °F 27.9 °F 85% 30.11 in 10.0 mi NNW 8.1 mph - N/A   Clear
3:35 AM 31.6 °F 25.1 °F 27.5 °F 85% 30.12 in 10.0 mi NNW 6.9 mph - N/A   Clear
3:55 AM 31.6 °F 23.7 °F 27.5 °F 85% 30.12 in 10.0 mi NNW 9.2 mph - N/A   Clear
4:15 AM 30.9 °F 23.5 °F 27.3 °F 86% 30.12 in 10.0 mi NNW 8.1 mph - N/A   Clear
4:35 AM 31.1 °F 23.7 °F 27.5 °F 87% 30.12 in 10.0 mi NNW 8.1 mph - N/A   Clear
4:55 AM 30.7 °F 24.1 °F 27.1 °F 86% 30.12 in 10.0 mi NNW 6.9 mph - N/A   Clear
5:15 AM 31.1 °F 23.1 °F 27.5 °F 87% 30.13 in 10.0 mi NNW 9.2 mph - N/A   Clear
5:35 AM 30.9 °F 22.8 °F 27.3 °F 86% 30.15 in 10.0 mi NW 9.2 mph - N/A   Clear
5:55 AM 31.1 °F 23.1 °F 27.5 °F 87% 30.15 in 10.0 mi NNW 9.2 mph - N/A   Clear
6:15 AM 31.5 °F 23.5 °F 27.5 °F 85% 30.16 in 10.0 mi NNW 9.2 mph - N/A   Clear
6:35 AM 30.7 °F 24.1 °F 27.1 °F 86% 30.16 in 10.0 mi NNW 6.9 mph - N/A   Clear
6:55 AM 30.2 °F 23.4 °F 27.0 °F 88% 30.17 in 10.0 mi NW 6.9 mph - N/A   Clear
7:15 AM 30.0 °F 23.2 °F 27.0 °F 88% 30.18 in 10.0 mi NW 6.9 mph - N/A   Clear
7:35 AM 30.2 °F 23.4 °F 27.0 °F 88% 30.18 in 10.0 mi NW 6.9 mph - N/A   Clear
7:55 AM 30.0 °F 24.1 °F 27.0 °F 88% 30.18 in 10.0 mi NW 5.8 mph - N/A   Clear
8:15 AM 30.9 °F 23.5 °F 27.5 °F 87% 30.19 in 10.0 mi NW 8.1 mph - N/A   Clear
8:35 AM 31.1 °F 24.5 °F 27.5 °F 87% 30.19 in 10.0 mi NNW 6.9 mph - N/A   Clear
8:55 AM 33.1 °F 26.1 °F 28.9 °F 85% 30.20 in 10.0 mi NNW 8.1 mph - N/A   Clear
9:15 AM 34.2 °F 29.0 °F 30.0 °F 85% 30.20 in 10.0 mi NNW 5.8 mph - N/A   Clear
9:35 AM 35.4 °F 29.7 °F 30.6 °F 82% 30.21 in 10.0 mi NNW 6.9 mph - N/A   Clear
9:55 AM 37.4 °F 32.8 °F 31.8 °F 80% 30.21 in 10.0 mi NNW 5.8 mph - N/A   Clear
10:15 AM 39.6 °F 34.7 °F 32.2 °F 75% 30.21 in 10.0 mi NNW 6.9 mph - N/A   Clear
10:35 AM 41.4 °F 36.8 °F 33.1 °F 72% 30.21 in 10.0 mi NNW 6.9 mph - N/A   Clear
10:55 AM 42.8 °F 37.0 °F 32.9 °F 68% 30.21 in 10.0 mi NNW 10.4 mph - N/A   Clear
11:15 AM 45.0 °F 39.7 °F 32.5 °F 62% 30.21 in 10.0 mi NNW 10.4 mph - N/A   Clear
11:35 AM 46.6 °F - 32.4 °F 58% 30.21 in 10.0 mi North 10.4 mph - N/A   Clear
11:55 AM 46.9 °F - 32.0 °F 56% 30.22 in 10.0 mi North 6.9 mph - N/A   Clear
12:15 PM 48.2 °F - 31.6 °F 53% 30.22 in 10.0 mi NNW 5.8 mph - N/A   Clear
12:35 PM 48.6 °F - 31.8 °F 52% 30.22 in 10.0 mi North 6.9 mph - N/A   Scattered Clouds
12:55 PM 49.5 °F - 32.0 °F 51% 30.21 in 10.0 mi North 8.1 mph - N/A   Overcast
1:15 PM 50.4 °F - 32.4 °F 50% 30.21 in 10.0 mi NNW 5.8 mph - N/A   Scattered Clouds
1:35 PM 50.9 °F - 32.5 °F 49% 30.20 in 10.0 mi NNW 3.5 mph - N/A   Clear
1:55 PM 50.9 °F - 32.7 °F 50% 30.20 in 10.0 mi NNW 3.5 mph - N/A   Clear
2:15 PM 52.5 °F - 33.1 °F 48% 30.19 in 10.0 mi North 5.8 mph - N/A   Scattered Clouds
2:35 PM 52.9 °F - 33.3 °F 47% 30.19 in 10.0 mi NNW 3.5 mph - N/A   Clear
2:55 PM 53.2 °F - 33.4 °F 47% 30.18 in 10.0 mi NNW 5.8 mph - N/A   Clear
3:15 PM 53.4 °F - 33.6 °F 47% 30.17 in 10.0 mi North 5.8 mph - N/A   Clear
3:35 PM 53.8 °F - 33.8 °F 47% 30.17 in 10.0 mi North 4.6 mph - N/A   Clear
3:55 PM 54.0 °F - 34.0 °F 47% 30.17 in 10.0 mi Calm Calm - N/A   Clear
4:15 PM 53.6 °F - 34.2 °F 48% 30.17 in 10.0 mi NE 3.5 mph - N/A   Clear
4:35 PM 53.8 °F - 34.3 °F 48% 30.17 in 10.0 mi Calm Calm - N/A   Clear
4:55 PM 53.8 °F - 34.5 °F 48% 30.16 in 7.0 mi Calm Calm - N/A   Clear
5:15 PM 53.8 °F - 34.7 °F 48% 30.16 in 10.0 mi NNW 5.8 mph - N/A   Clear
5:35 PM 52.9 °F - 34.7 °F 50% 30.17 in 10.0 mi NNW 3.5 mph - N/A   Clear
5:55 PM 51.6 °F - 34.5 °F 52% 30.17 in 10.0 mi Calm Calm - N/A   Clear
6:15 PM 48.4 °F - 34.2 °F 58% 30.17 in 10.0 mi North 3.5 mph - N/A   Clear
6:35 PM 48.6 °F - 34.7 °F 59% 30.17 in 10.0 mi Calm Calm - N/A   Clear
6:55 PM 46.0 °F - 34.0 °F 63% 30.19 in 10.0 mi Calm Calm - N/A   Scattered Clouds
7:15 PM 44.6 °F - 34.3 °F 67% 30.19 in 10.0 mi Calm Calm - N/A   Mostly Cloudy
7:35 PM 45.3 °F 44.0 °F 34.5 °F 66% 30.19 in 10.0 mi NNW 3.5 mph - N/A   Overcast
7:55 PM 40.6 °F - 33.1 °F 74% 30.19 in 10.0 mi Calm Calm - N/A   Mostly Cloudy
8:15 PM 39.6 °F - 32.0 °F 74% 30.19 in 10.0 mi Calm Calm - N/A   Mostly Cloudy
8:35 PM 37.2 °F - 31.1 °F 79% 30.19 in 0.5 mi Calm Calm - N/A   Haze
8:55 PM 36.9 °F - 31.1 °F 80% 30.19 in 10.0 mi Calm Calm - N/A   Scattered Clouds
9:15 PM 40.6 °F - 35.6 °F 82% 30.19 in 10.0 mi Calm Calm - N/A   Scattered Clouds
9:35 PM 38.8 °F - 33.6 °F 82% 30.19 in 5.0 mi Calm Calm - N/A   Haze
9:55 PM 37.2 °F - 33.6 °F 87% 30.20 in 10.0 mi Calm Calm - N/A   Mostly Cloudy
10:15 PM 38.1 °F - 32.7 °F 81% 30.20 in 10.0 mi Calm Calm - N/A   Scattered Clouds
10:35 PM 36.7 °F - 32.9 °F 86% 30.19 in 10.0 mi Calm Calm - N/A   Scattered Clouds
10:55 PM 35.4 °F - 31.1 °F 84% 30.19 in 10.0 mi Calm Calm - N/A   Scattered Clouds
11:15 PM 35.4 °F - 32.0 °F 87% 30.19 in 7.0 mi Calm Calm - N/A   Scattered Clouds
11:35 PM 35.4 °F - 31.3 °F 85% 30.19 in 10.0 mi Calm Calm - N/A   Overcast
11:55 PM 35.8 °F - 32.0 °F 86% 30.18 in 4.0 mi Calm Calm - N/A   Overcast